Regional Weather Roundup
Issued by NWS Upton, NY

Current Version | Previous Version | Graphics & Text | Print | Product List | Glossary Off
Versions: 1 2 3 4 5 6 7 8 9 10 11 12 13 14 15 16 17 18 19 20 21 22 23 24 25 26 27 28 29 30 31 32 33 34 35 36 37 38 39 40 41 42 43 44 45 46 47 48 49 50

000
ASUS41 KOKX 251508
RWROKX

REGIONAL WEATHER ROUNDUP
NATIONAL WEATHER SERVICE NEW YORK NY
1100 AM EDT SAT MAR 25 2017

NOTE: "FAIR" INDICATES FEW OR NO CLOUDS BELOW 12,000 FEET WITH NO
SIGNIFICANT WEATHER AND/OR OBSTRUCTIONS TO VISIBILITY.

NYZ071-072-176-178-NJZ106-104-251600-
NEW YORK CITY METRO AREA

CITY           SKY/WX    TMP DP  RH WIND       PRES   REMARKS
Central Park   CLOUDY    58  39  49 VRB5      30.17F
Wall St Helipt MOSUNNY   54  39  58 VRB3      30.17S
LaGuardia APRT CLOUDY    53  36  52 NE9       30.16R
Kennedy INTL   CLOUDY    57  42  57 CALM      30.16F
Breezy Point     N/A     54 N/A N/A W1          N/A
Newark/Liberty CLOUDY    57  38  48 SE3       30.16S
Teterboro      CLOUDY    57  39  51 VRB5      30.16S
$$

NYZ177-179-078>081-251600-
LONG ISLAND NEW YORK

CITY           SKY/WX    TMP DP  RH WIND       PRES   REMARKS
Jones Beach      N/A     54 N/A N/A S2          N/A
Matinecock PT    N/A     43 N/A N/A E10         N/A
Farmingdale    PTSUNNY   58  40  51 NE5       30.15F
MacArthur/ISP  PTSUNNY   59  39  47 N5        30.16F
Shirley        MOSUNNY   59  41  51 VRB3      30.18S
Westhampton    MOSUNNY   59  38  45 VRB6      30.18F
East Hampton     N/A     54  38  54 N8        30.18S
Montauk          N/A     46  39  76 NE7       30.19R
$$

NYZ052-065-067-251600-
HUDSON VALLEY

CITY           SKY/WX    TMP DP  RH WIND       PRES   REMARKS
White Plains   LGT RAIN  50  40  68 NE3       30.15S
Newburgh       PTSUNNY   45  39  81 NE12      30.21R
Montgomery     CLOUDY    45  37  73 N9        30.18R
Poughkeepsie   CLOUDY    43  36  76 N6        30.21R
Albany         LGT RAIN  37  31  78 N8        30.25R WCI  31
$$

NJZ001-105-106-008-010-013-015-019>022-104-251600-
NEW JERSEY

CITY           SKY/WX    TMP DP  RH WIND       PRES   REMARKS
Newark/Liberty CLOUDY    57  38  48 SE3       30.16S
Teterboro      CLOUDY    57  39  51 VRB5      30.16S
Caldwell       CLOUDY    56  39  53 CALM      30.17R
Somerville     CLOUDY    58  42  55 S6        30.15R
Linden           N/A     57  39  50 CALM      30.16F
Sussex         CLOUDY    47  38  71 E3        30.18R
Andover          N/A     46  39  76 CALM      30.16R
Trenton        CLOUDY    58  47  66 SW3       30.15S
Millville      CLOUDY    66  50  56 W9        30.18S
Atlantic City  CLOUDY    69  48  47 W9        30.17S
Wrightstown    PTSUNNY   67  49  52 SW10      30.13F
Toms River     CLOUDY    68  50  52 SW13      30.15F
Belmar         PTSUNNY   59  47  64 SW6       30.16F
$$

PAZ047>061-062-071-251600-
EASTERN PENNSYLVANIA

CITY           SKY/WX    TMP DP  RH WIND       PRES   REMARKS
Philadelphia   CLOUDY    63  48  58 SW10      30.17S
Allentown      CLOUDY    59  42  53 N6        30.15R
Scranton       CLOUDY    49  40  71 CALM      30.15R
$$

CTZ002-004>006-009-010-012-RIZ004-006-007-MAZ004-011-015-251600-
SOUTHERN NEW ENGLAND
 IN CT

CITY           SKY/WX    TMP DP  RH WIND       PRES   REMARKS
Bradley INTL   CLOUDY    44  36  73 N8        30.22R
Hartford       CLOUDY    45  35  68 N7        30.22S
Danbury        CLOUDY    50  39  66 NE5       30.18S
Wtrbury/Oxford CLOUDY    46  34  61 NE7       30.19R
Bridgeport     CLOUDY    48  39  71 NE3       30.19S
Meriden        CLOUDY    49  36  61 N7        30.20S
New Haven      CLOUDY    50  37  61 N9        30.19S
Chester        NOT AVBL
Groton         CLOUDY    51  38  60 NE10      30.19R
Wilimantic     CLOUDY    49  38  65 NE6       30.22R

 IN RI

CITY           SKY/WX    TMP DP  RH WIND       PRES   REMARKS
Providence     CLOUDY    48  36  63 NE10      30.22R
Block Island   LGT RAIN  46  37  71 NE10      30.20R
Westerly       CLOUDY    50  40  68 NE9       30.21R
 IN MA

CITY           SKY/WX    TMP DP  RH WIND       PRES   REMARKS
Boston         LGT RAIN  39  37  92 NE9       30.24R WCI  33
Worcester      CLOUDY    39  33  79 NE8       30.20R WCI  33
Westfield      CLOUDY    41  36  82 N6        30.23R
Provincetown   CLOUDY    42  37  82 NE12      30.22S
Nantucket      CLOUDY    47  38  71 NE14G24   30.20R
$$

ANZ330-335-338-340-345-350-353-355-251600-
COASTAL MARINE OBSERVATIONS


STATION/POSITION TIME  SKY/WX   TEMP    WIND        PRES    VSBY  WAVE
                                AIR SEA DIR/SP/G                  HT/PER
                 (UTC)          (F)     (DEG/KT/KT) (MB)    (MI)  (FT/S)
NY HARB ENTRANCE 1450            49 42   CALM  /  2 1021.6          4/ 7
20 S FIRE ISLAND 1450            44 40  150/  4/  6 1021.5          5/ 8
GREAT SOUTH BAY  NOT AVBL
23 SSW MONTAUK P 1450            44 43              1022.3          6/ 8
15 E BARNEGAT LI 1430               42                N/A           6/ 7
HUDSON CANYON    1350            48 45  230/ 16/ 17 1021.8          8/ 8
KINGS POINT      1448            52 38              1021.0
EXECUTION ROCKS  NOT AVBL
CENTRAL LI SOUND 1430            40      10/  8/ 10   N/A           0
EASTERN LI SOUND NOT AVBL
ROBBINS REEF     1448            55        CALM     1021.4
$$


>>>>>>>>>>>>>>>>>>>>>>>>>>>> KEY <<<<<<<<<<<<<<<<<<<<<<<<<<<
>                                                          <
>     SKY/WX - Sky Condition/Present Weather               <
>     TMP    - Temperature in Fahrenheit                   <
>     DP     - Dew Point in Fahrenheit                     <
>     RH     - Relative Humidity in Percent                <
>     WIND   - Direction (from) and Speed in MPH           <
>     PRES   - Mean Sea Level Pressure (inches of Hg)      <
>     WCI    - Wind Chill Index                            <
>     VSB    - VISIBILITY IN MILES                         <
>     HX     - HEAT INDEX                                  <
>     TC     - TEMPERATURE IN CELSIUS                      <
>     VRB    - VARIABLE WIND DIRECTION                     <
>                                                          <
>>>>>>>>>>>>>>>>>>>>>>>>>>>> KEY <<<<<<<<<<<<<<<<<<<<<<<<<<<



USA.gov is the U.S. government's official web portal to all federal, state and local government web resources and services.